Погода в Арбагаре

Россия / Забайкальский край     51°56′38″N   116°16′49″E
темп.,
°C
ветер,
м/с
пор.,
м/с
влажн.,
%
обл.,
%
осадки,
мм/ч
давл.,
гПа
погр.,
м
19 сентября, вс
вс1900:00+5юз119111 0.0 102111
03:00+3ююз11945 0.0 102110
06:00+2ююз11953 0.0 102110
09:00+6ю11835 0.0 1021191
12:00+12юз34635 0.0 1019752
15:00+15юз465854 0.0 10171092
18:00+14ююз356663 0.0 1015222
21:00+9ююв22837 0.0 101610
20 сентября, пн
пн2000:00+7ююв1186100 0.0 101610
03:00+6ююв1186100 0.0 101510
06:00+6ю118793 0.0 101511
09:00+9ю1276100 0.0 1014124
12:00+15юз45605 0.0 1012877
15:00+18юз345424 0.0 10101341
18:00+16юз246495 0.0 1009101
21:00+11юз117725 0.0 101010
21 сентября, вт
вт2100:00+8ююз118417 0.0 101110
03:00+7в118580 0.0 101010
06:00+9ссв118198 0.0 100919
09:00+10всв118083 0.0 101054
12:00+14вюв22669 0.0 1008479
15:00+13ююз1187100 0.6 100715
18:00+14вюв128210 0.1 1006267
21:00+10ю009113 0.1 100610
22 сентября, ср
ср2200:00+9ююв119593 0.2 100710
03:00+10ююз2395100 1.2 1007105
06:00+8зюз479148 0.0 1010213
09:00+8зюз36793 0.0 1012372
12:00+12зюз34609 0.0 1012831
15:00+14зюз3351100 0.0 10121102
18:00+14з115964 0.0 101217
21:00+9вюв116990 0.0 101510
23 сентября, чт
чт2300:00+8в1173100 0.0 101510
03:00+9св3474100 0.1 1015103
06:00+8с2696100 4.6 1015281
09:00+8всв2697100 9.4 1014271
12:00+9св1398100 9.3 1011195
15:00+9сз1299100 18.8 1010114
18:00+8з369366 8.3 1012325
21:00+8з61189100 8.3 1014469